Location: Cheching
(60.0667°N, 164.2167°W)
Time: 22:05:55
(UTC+00:00)

LilacSat-2 - Pass Details

Date: 18 January 2021
Orbit: 512 x 534 km, 97.5° (Epoch: 07 March)

Event Time Altitude Azimuth Distance (km) Brightness Sun altitude
Rises 18:03:21 0° 12° (NNE) 2,681 ? -10.9°
Reaches altitude 10° 18:05:34 10° 4° (N) 1,790 ? -10.6°
Maximum altitude 18:09:07 36° 298° (WNW) 865 ? -10.2°
Drops below altitude 10° 18:12:40 10° 231° (SW) 1,788 ? -9.8°
Sets 18:14:53 0° 223° (SW) 2,677 ? -9.6°
